Weather reports worldwide

Advertisment
List/Sylt, Germany (10020): temperature & dewpoint: 15.06.2018 23:00:00 - 21.06.2018 23:00:00 (CEST)List/Sylt, Germany (10020): temperature 5cm & temperature -5cm: 15.06.2018 23:00:00 - 21.06.2018 23:00:00 (CEST)List/Sylt, Germany (10020): temperature -20cm: 15.06.2018 23:00:00 - 21.06.2018 23:00:00 (CEST)List/Sylt, Germany (10020): wind speed & gusts: 15.06.2018 23:00:00 - 21.06.2018 23:00:00 (CEST)List/Sylt, Germany (10020): wind direction: 15.06.2018 23:00:00 - 21.06.2018 23:00:00 (CEST)List/Sylt, Germany (10020): reduced air pressure: 15.06.2018 23:00:00 - 21.06.2018 23:00:00 (CEST)List/Sylt, Germany (10020): visibility: 15.06.2018 23:00:00 - 21.06.2018 23:00:00 (CEST)List/Sylt, Germany (10020): sunshine duration: 15.06.2018 23:00:00 - 21.06.2018 23:00:00 (CEST)List/Sylt, Germany (10020): precipitation: 15.06.2018 23:00:00 - 21.06.2018 23:00:00 (CEST)
Date & Time tt [°C] td [°C] tt 5cm [°C] tt -5cm [°C] tt -20cm [°C] ff [km/h] ff [kn] fx [km/h] fx [kn] dd ppp [hPa] vv [km] sd [min] rr [mm]
21.06.2018 23:00:00 11,7 8,2 10,2 13,8 15,5 40 22 61 33 WNW 1013,5 10 0 0,0
21.06.2018 22:00:00 11,4 7,2 9,4 14,2 15,6 46 25 71 39 WNW 1013,6 26 0 0,7
21.06.2018 21:00:00 12,4 6,6 11,9 14,5 15,7 47 25 64 34 WNW 1013,7 11 14 0,0
21.06.2018 20:00:00 11,9 7,0 11,2 14,9 15,7 48 26 64 35 WNW 1013,8 11 23 0,0
21.06.2018 19:00:00 13,1 6,0 14,3 15,2 15,7 48 26 71 38 WNW 1013,8 8 38 0,0
21.06.2018 18:00:00 12,9 6,5 13,8 15,4 15,7 53 29 69 37 NW 1013,4 3,6 26 0,0
21.06.2018 17:00:00 14,3 7,4 17,4 15,5 15,7 54 29 69 37 NW 1013,1 3,3 43 0,0
21.06.2018 16:00:00 14,4 8,1 17,4 15,0 15,8 50 27 68 37 NW 1012,2 2,8 33 0,0
21.06.2018 15:00:00 12,3 6,5 12,4 14,4 15,9 50 27 66 36 NW 1011,5 6 4 0,0
21.06.2018 14:00:00 11,7 7,3 10,9 14,4 16,1 44 24 56 31 NW 1011,2 12 0 0,0
21.06.2018 13:00:00 11,2 7,7 9,9 14,6 16,2 31 17 52 28 NNW 1010,5 15 0 3,6
21.06.2018 12:00:00 9,8 6,6 8,7 15,1 16,4 34 18 52 28 NW 1010,3 5 0 1,7
21.06.2018 11:00:00 11,2 8,7 10,7 15,3 16,5 31 17 42 23 NW 1010,0 11 0 1,7
21.06.2018 10:00:00 11,2 9,3 10,9 15,5 16,6 20 11 40 22 WNW 1009,9 7 0 1,4
21.06.2018 09:00:00 11,0 8,9 10,3 15,5 16,7 29 16 39 21 WNW 1010,2 4,3 0 0,5
21.06.2018 08:00:00 12,5 9,0 12,0 15,6 16,8 21 12 32 17 WNW 1010,5 70 0 0,0
21.06.2018 07:00:00 12,8 8,2 12,6 15,7 17,0 21 12 33 18 WNW 1010,8 50 0 0,0
21.06.2018 06:00:00 12,9 8,6 12,7 15,8 17,1 22 12 35 19 NW 1011,2 44 0 0,0
21.06.2018 05:00:00 12,8 8,0 12,3 16,0 17,2 27 14 40 21 NW 1011,4 48 0 0,0
21.06.2018 04:00:00 13,0 8,4 12,6 16,3 17,4 29 16 41 22 WNW 1011,8 58 0 0,0
21.06.2018 03:00:00 12,9 9,3 11,9 16,7 17,5 27 14 37 20 WNW 1012,3 44 0 0,0
21.06.2018 02:00:00 13,4 9,3 13,1 17,1 17,6 29 16 41 22 WNW 1012,5 41 0 0,0
21.06.2018 01:00:00 13,8 10,8 13,4 17,5 17,7 32 17 46 25 WNW 1013,1 33 0 0,0
21.06.2018 00:00:00 14,1 12,9 13,6 17,9 17,8 36 19 54 29 WNW 1012,9 6 0 0,0
20.06.2018 23:00:00 15,7 14,5 15,6 18,2 17,8 33 18 50 27 WSW 1013,0 11 0 0,0
20.06.2018 22:00:00 15,7 14,7 15,5 18,4 17,9 35 19 56 31 WSW 1013,2 10 0 0,0
20.06.2018 21:00:00 15,5 14,8 15,2 18,8 17,9 37 20 56 30 SW 1013,4 12 0 0,0
20.06.2018 20:00:00 15,5 14,9 15,3 19,2 17,8 36 19 61 33 SW 1013,7 2,9 0 0,0
20.06.2018 19:00:00 16,2 14,7 17,1 19,7 17,8 38 21 57 31 SW 1014,3 8 0 0,0
20.06.2018 18:00:00 17,1 15,2 18,4 20,1 17,6 38 21 63 34 SW 1014,9 6 3 0,0
20.06.2018 17:00:00 17,8 15,4 20,1 20,3 17,5 39 21 60 32 WSW 1015,3 5 0 0,0
20.06.2018 16:00:00 17,4 14,8 19,4 20,3 17,3 44 24 63 34 SW 1015,6 7 4 0,0
20.06.2018 15:00:00 18,1 15,0 21,4 20,1 17,1 44 24 67 36 SW 1015,8 2,9 30 0,0
20.06.2018 14:00:00 17,7 15,2 21,9 19,4 17,0 47 25 66 35 SW 1015,8 2,8 7 0,0
20.06.2018 13:00:00 17,4 15,1 20,6 18,9 16,8 45 24 64 34 SW 1016,5 3,9 2 0,0
20.06.2018 12:00:00 17,5 15,6 20,2 18,5 16,7 44 24 64 35 SW 1016,9 3,6 2 0,0
20.06.2018 11:00:00 17,9 15,3 21,1 18,2 16,6 47 26 66 36 SW 1016,8 3,2 45 0,0
20.06.2018 10:00:00 18,0 15,5 21,5 17,4 16,6 45 25 62 34 SW 1016,9 3,6 59 0,0
20.06.2018 09:00:00 17,6 15,3 20,2 16,8 16,7 44 24 61 33 SW 1017,0 4,4 49 0,0
20.06.2018 08:00:00 17,0 15,1 17,5 16,5 16,7 41 22 56 31 SSW 1017,3 8 5 0,0
20.06.2018 07:00:00 16,6 14,8 16,0 16,3 16,8 36 20 50 27 SSW 1017,7 14 0 0,1
20.06.2018 06:00:00 16,4 13,5 16,2 16,2 16,9 32 18 43 23 S 1018,5 27 0 0,0
20.06.2018 05:00:00 15,5 12,4 15,2 16,2 17,0 25 13 33 18 S 1019,3 28 0 0,0
20.06.2018 04:00:00 14,8 11,0 13,4 16,3 17,1 13 7 20 11 SSW 1019,9 6 0 0,0
20.06.2018 03:00:00 14,5 10,6 14,3 16,4 17,3 13 7 24 13 SW 1020,5 33 0 0,0
20.06.2018 02:00:00 14,2 9,9 14,0 16,6 17,4 18 10 30 16 WSW 1021,2 34 0 0,0
20.06.2018 01:00:00 13,9 9,2 13,5 16,8 17,6 18 10 34 18 WSW 1021,5 29 0 0,0
20.06.2018 00:00:00 14,0 8,7 13,5 17,1 17,7 21 11 36 20 W 1021,7 32 0 0,0
19.06.2018 23:00:00 13,6 8,2 12,7 17,6 17,8 22 12 31 17 W 1021,9 29 0 0,0
19.06.2018 22:00:00 13,7 7,7 12,8 18,2 17,9 25 13 37 20 W 1021,8 38 10 0,0
19.06.2018 21:00:00 14,3 8,5 14,7 19,0 17,9 22 12 31 17 W 1021,7 26 24 0,0
19.06.2018 20:00:00 14,8 8,5 16,7 19,7 17,9 25 13 40 21 W 1021,7 11 48 0,0
19.06.2018 19:00:00 15,5 8,9 18,7 20,5 17,7 27 15 40 22 W 1021,5 12 49 0,0
19.06.2018 18:00:00 15,4 8,4 20,3 21,1 17,5 31 17 42 23 W 1021,2 7 54 0,0
19.06.2018 17:00:00 16,2 8,4 21,2 21,2 17,3 30 16 44 24 W 1021,5 3,8 53 0,0
19.06.2018 16:00:00 15,4 8,2 20,7 20,9 17,0 29 15 49 26 W 1021,1 8 51 0,0
19.06.2018 15:00:00 16,3 7,7 22,1 20,5 16,7 35 19 48 26 W 1020,6 4,7 58 0,0
19.06.2018 14:00:00 15,9 9,7 20,7 20,0 16,5 33 18 50 27 W 1020,2 5 52 0,0
19.06.2018 13:00:00 16,3 8,7 21,0 19,1 16,3 36 19 47 26 W 1019,5 6 57 0,0
19.06.2018 12:00:00 16,4 8,0 21,2 18,2 16,1 35 19 45 24 WNW 1018,8 7 60 0,0
19.06.2018 11:00:00 16,0 10,9 19,9 17,3 16,1 36 19 47 26 W 1018,2 5 56 0,0
19.06.2018 10:00:00 16,0 13,0 20,2 16,3 16,1 28 15 48 26 W 1017,7 7 13 0,0
19.06.2018 09:00:00 15,0 12,5 14,3 16,1 16,1 36 20 50 27 W 1017,0 8 0 0,0
19.06.2018 08:00:00 16,0 13,7 16,7 15,9 16,1 33 18 45 24 WSW 1015,9 13 1 0,0
19.06.2018 07:00:00 15,7 13,9 16,2 15,7 16,2 31 17 44 24 WSW 1015,5 12 0 0,0
19.06.2018 06:00:00 15,3 14,1 15,1 15,6 16,3 24 13 41 22 WSW 1015,2 11 0 0,0
19.06.2018 05:00:00 15,2 13,9 14,8 15,6 16,3 27 15 44 24 WSW 1014,9 13 0 0,0
19.06.2018 04:00:00 15,0 13,6 14,3 15,7 16,4 29 16 44 24 SW 1015,0 14 0 0,0
19.06.2018 03:00:00 15,0 13,6 14,7 15,7 16,5 28 15 39 21 SW 1015,5 14 0 0,0
19.06.2018 02:00:00 14,7 13,3 13,9 15,9 16,6 25 13 42 23 WSW 1015,8 13 0 0,0
19.06.2018 01:00:00 14,6 12,9 13,5 16,1 16,7 27 15 42 23 WSW 1015,8 15 0 0,0
19.06.2018 00:00:00 14,6 12,5 13,5 16,4 16,8 24 13 41 22 WSW 1016,1 21 0 0,0
18.06.2018 23:00:00 14,8 13,3 13,9 16,8 16,8 29 15 39 21 SW 1016,0 10 0 0,0
18.06.2018 22:00:00 15,3 13,4 15,2 17,2 16,8 27 15 41 22 WSW 1015,9 12 0 0,0
18.06.2018 21:00:00 15,7 13,9 15,7 17,5 16,8 25 14 36 19 SW 1015,6 11 4 0,0
18.06.2018 20:00:00 15,8 13,7 16,5 17,7 16,7 21 11 33 18 SW 1015,7 17 0 0,0
18.06.2018 19:00:00 15,7 13,8 16,7 17,8 16,7 24 13 42 23 WSW 1015,8 16 0 0,0
18.06.2018 18:00:00 16,0 13,9 16,9 17,8 16,6 29 16 43 23 WSW 1015,9 12 0 0,0
18.06.2018 17:00:00 15,8 14,2 17,2 17,3 16,6 26 14 47 25 WSW 1015,7 10 0 0,0
18.06.2018 16:00:00 15,4 14,7 15,5 17,2 16,6 35 19 51 28 SW 1015,9 4,1 0 0,0
18.06.2018 15:00:00 15,5 14,8 15,8 17,2 16,5 41 22 56 31 SW 1015,5 3,6 0 0,2
18.06.2018 14:00:00 15,9 14,2 16,7 17,2 16,5 41 22 59 32 SSW 1015,6 8 0 0,0
18.06.2018 13:00:00 15,3 13,8 15,2 17,1 16,5 39 21 53 28 SSW 1015,5 5 0 0,0
18.06.2018 12:00:00 16,0 13,3 17,9 16,9 16,4 39 21 54 29 SSW 1015,6 10 0 0,0
18.06.2018 11:00:00 15,8 12,7 17,2 16,8 16,4 40 22 54 29 SSW 1015,7 12 0 0,0
18.06.2018 10:00:00 16,1 12,7 18,1 16,3 16,5 34 18 45 24 SSW 1015,8 10 2 0,0
18.06.2018 09:00:00 15,7 13,0 17,3 15,9 16,6 29 16 46 25 SSW 1015,6 20 0 0,0
18.06.2018 08:00:00 15,3 12,9 15,6 15,7 16,7 33 18 45 24 SSW 1015,5 13 0 0,0
18.06.2018 07:00:00 15,3 12,4 15,1 15,6 16,8 29 16 40 22 SSW 1015,7 17 0 0,0
18.06.2018 06:00:00 14,7 11,6 14,1 15,5 16,9 22 12 31 17 SSW 1016,1 29 22 0,0
18.06.2018 05:00:00 14,1 12,0 12,4 15,7 17,1 22 12 34 18 SW 1016,1 21 0 0,0
18.06.2018 04:00:00 14,1 11,8 12,5 15,9 17,3 21 12 29 16 SW 1016,1 18 0 0,0
18.06.2018 03:00:00 13,6 11,0 12,2 16,1 17,4 19 11 28 15 SW 1016,2 20 0 0,0
18.06.2018 02:00:00 13,6 11,0 12,1 16,4 17,6 18 10 28 15 WSW 1016,7 21 0 0,0
18.06.2018 01:00:00 13,5 10,8 12,1 16,8 17,8 16 9 36 19 WSW 1016,5 20 0 0,0
18.06.2018 00:00:00 14,2 11,0 13,4 17,2 17,9 24 13 34 19 WSW 1016,3 20 0 0,0
17.06.2018 23:00:00 14,1 11,0 13,0 17,7 18,0 23 12 36 20 WSW 1016,2 21 0 0,0
17.06.2018 22:00:00 14,4 10,9 13,4 18,3 18,1 24 13 36 19 WSW 1016,0 20 12 0,0
17.06.2018 21:00:00 14,8 11,0 14,8 19,0 18,1 27 14 43 23 WSW 1015,8 17 5 0,0
17.06.2018 20:00:00 15,0 11,1 15,1 19,7 18,1 29 16 47 26 WSW 1015,5 17 17 0,0
17.06.2018 19:00:00 15,7 11,4 17,9 20,6 18,0 30 16 47 26 WSW 1015,1 6 56 0,0
17.06.2018 18:00:00 15,6 11,0 17,6 21,1 17,8 31 17 48 26 WSW 1014,8 12 50 0,0
17.06.2018 17:00:00 16,2 11,3 19,7 21,4 17,5 31 17 46 25 WSW 1014,7 4,3 60 0,0
17.06.2018 16:00:00 16,9 11,3 21,7 21,2 17,2 31 17 49 26 WSW 1014,4 3,6 59 0,0
17.06.2018 15:00:00 17,1 11,5 21,3 20,7 17,0 34 18 49 27 WSW 1014,0 4,3 60 0,0
17.06.2018 14:00:00 16,6 11,3 21,3 19,8 16,8 33 18 49 26 WSW 1013,4 4,4 47 0,0
17.06.2018 13:00:00 16,4 11,5 19,9 18,8 16,7 32 18 47 26 WSW 1012,9 9 25 0,0
17.06.2018 12:00:00 15,9 12,2 18,1 18,1 16,6 33 18 45 25 WSW 1012,5 6 21 0,0
17.06.2018 11:00:00 15,2 12,2 17,6 16,9 16,6 30 16 41 22 WSW 1012,0 8 43 1,2
17.06.2018 10:00:00 12,7 11,0 12,0 16,6 16,6 27 15 54 29 WSW 1011,8 4,3 1 0,8
17.06.2018 09:00:00 15,7 13,1 16,8 16,3 16,7 34 18 50 27 SW 1011,0 11 14 0,0
17.06.2018 08:00:00 15,6 12,6 16,4 15,9 16,8 35 19 48 26 SSW 1010,9 24 26 0,0
17.06.2018 07:00:00 15,2 11,9 15,4 15,7 16,9 23 13 35 19 SSW 1011,0 13 60 0,0
17.06.2018 06:00:00 14,9 12,0 13,1 15,8 17,1 21 11 27 14 S 1011,4 22 19 0,0
17.06.2018 05:00:00 14,2 11,9 12,2 16,1 17,2 15 8 24 13 SW 1011,7 15 0 0,0
17.06.2018 04:00:00 14,5 12,9 12,9 16,3 17,3 16 9 29 15 SSW 1011,9 10 0 0,0
17.06.2018 03:00:00 14,5 13,0 13,5 16,6 17,4 24 13 32 17 SSW 1012,2 13 0 0,0
17.06.2018 02:00:00 14,8 13,0 13,7 16,9 17,5 17 9 27 15 SW 1012,4 10 0 0,0
17.06.2018 01:00:00 14,7 12,9 13,4 17,3 17,6 15 8 25 14 SW 1012,4 10 0 0,0
17.06.2018 00:00:00 15,1 12,3 14,0 17,7 17,7 15 8 26 14 SW 1012,4 15 0 0,0
16.06.2018 23:00:00 16,1 12,3 15,0 18,2 17,7 16 9 23 12 SSW 1012,6 18 0 0,0
16.06.2018 22:00:00 16,1 12,5 15,1 18,8 17,7 15 8 22 12 SW 1012,6 19 13 0,0
16.06.2018 21:00:00 16,4 12,7 16,1 19,5 17,6 18 10 26 14 SW 1012,7 11 2 0,0
16.06.2018 20:00:00 17,4 14,3 19,3 19,9 17,4 12 7 29 16 SW 1012,5 9 51 0,0
16.06.2018 19:00:00 18,6 15,0 22,3 20,0 17,3 14 8 18 10 S 1012,5 15 22 0,0
16.06.2018 18:00:00 17,9 15,0 18,9 19,6 17,2 8 5 13 7 ESE 1012,7 10 0 0,0
16.06.2018 17:00:00 18,1 14,7 19,2 19,0 17,1 9 5 12 7 E 1013,0 10 0 0,0
16.06.2018 16:00:00 16,9 14,5 16,9 18,6 17,0 5 3 13 7 SE 1013,6 8 0 0,5
16.06.2018 15:00:00 17,4 15,0 18,8 18,1 17,0 12 6 16 9 E 1013,6 10 0 0,0
16.06.2018 14:00:00 16,8 14,5 17,6 17,7 16,9 12 6 22 12 ESE 1014,0 11 0 1,8
16.06.2018 13:00:00 17,8 13,2 18,6 17,7 16,9 11 6 19 10 SE 1014,2 17 0 0,0
16.06.2018 12:00:00 17,7 12,3 18,9 17,3 16,9 13 7 22 12 SE 1014,4 28 0 0,0
16.06.2018 11:00:00 16,8 11,1 18,1 17,1 16,9 16 8 21 11 ESE 1014,7 30 0 0,0
16.06.2018 10:00:00 16,4 10,9 17,7 16,8 17,0 13 7 23 12 E 1015,0 33 0 0,0
16.06.2018 09:00:00 16,0 10,8 16,8 16,5 17,1 17 9 23 13 E 1015,1 24 0 0,0
16.06.2018 08:00:00 15,6 10,7 16,3 16,2 17,2 16 9 22 12 E 1015,3 24 0 0,0
16.06.2018 07:00:00 15,5 10,6 15,4 16,1 17,3 15 8 20 11 E 1015,6 30 0 0,0
16.06.2018 06:00:00 15,2 11,2 14,3 16,1 17,4 10 6 15 8 ENE 1015,9 31 0 0,0
16.06.2018 05:00:00 14,8 9,6 13,5 16,2 17,6 11 6 14 8 NE 1016,5 35 0 0,0
16.06.2018 04:00:00 15,3 9,9 13,4 16,4 17,8 6 3 14 7 ENE 1016,9 35 0 0,0
16.06.2018 03:00:00 15,3 9,5 13,1 16,7 17,9 11 6 16 9 ESE 1016,9 34 0 0,0
16.06.2018 02:00:00 15,9 8,0 13,0 16,9 18,1 2 1 6 4 WNW 1017,1 43 0 0,0
16.06.2018 01:00:00 15,2 9,4 9,9 17,3 18,3 6 3 9 5 SSW 1017,1 42 0 0,0
16.06.2018 00:00:00 15,9 8,0 11,1 17,9 18,4 7 4 11 6 S 1016,9 46 0 0,0
15.06.2018 23:00:00 16,0 8,4 12,5 18,6 18,5 8 5 12 6 S 1017,0 45 0 0,0

tt = temperature
td = dewpoint
tt 5cm = temperature 5cm
tt -5cm = temperature -5cm
tt -20cm = temperature -20cm
ff = wind speed
fx = gusts
dd = wind direction
ppp = reduced air pressure
vv = visibility
sd = sunshine duration
rr = precipitation

Next stations